When you browse on this site, cookies collect data to enhance your experience and personalize the content and advertising you see.
Visit our Privacy Policy to learn more. By continuing to use the site, you agree to this use of cookies and data.
  • In Slovakia
  • List of Countries
  • For 7 days
  • Water Temperature
  • Satellite Maps
  • Weather Map
  • Weather Widgets
  • user-avatar
    Login

    Hourly Weather Sucha

    Today, 20 January, Sunday

    Time Temperature Precipitation Wind Pressure Humidity
    00:00 -1°C° 0 mm 1 mps 753 mmHg 69%
    01:00 -1°C° 0 mm 1 mps 753 mmHg 76%
    02:00 -2°C° 0 mm 1 mps 753 mmHg 77%
    03:00 -2°C° 0 mm 1 mps 752 mmHg 77%
    04:00 -2°C° 0 mm 1 mps 752 mmHg 77%
    05:00 -2°C° 0 mm 1 mps 752 mmHg 77%
    06:00 -2°C° 0 mm 1 mps 752 mmHg 77%
    07:00 -3°C° 0 mm 1 mps 752 mmHg 76%
    08:00 -2°C° 0 mm 1 mps 752 mmHg 73%
    09:00 -2°C° 0 mm 1 mps 752 mmHg 70%
    10:00 -1°C° 0 mm 1 mps 752 mmHg 67%
    11:00 -1°C° 0 mm 1 mps 752 mmHg 63%
    12:00 -1°C° 0 mm 0 mps 752 mmHg 60%
    13:00 -1°C° 0 mm 0 mps 752 mmHg 56%
    14:00 0°C° 0 mm 1 mps 752 mmHg 58%
    15:00 0°C° 0 mm 1 mps 752 mmHg 60%
    16:00 -1°C° 0 mm 1 mps 752 mmHg 63%
    17:00 -1°C° 0 mm 1 mps 752 mmHg 64%
    18:00 -1°C° 0 mm 1 mps 753 mmHg 65%
    19:00 -1°C° 0 mm 1 mps 753 mmHg 66%
    20:00 -2°C° 0 mm 1 mps 753 mmHg 66%
    21:00 -2°C° 0 mm 1 mps 754 mmHg 67%
    22:00 -2°C° 0 mm 1 mps 754 mmHg 68%
    23:00 -2°C° 0 mm 1 mps 754 mmHg 69%

    Tomorrow, 21 January, Monday

    Time Temperature Precipitation Wind Pressure Humidity
    00:00 -2°C° 0 mm 1 mps 754 mmHg 71%
    01:00 -4°C° 0 mm 2 mps 755 mmHg 72%
    02:00 -4°C° 0 mm 2 mps 755 mmHg 74%
    03:00 -3°C° 0 mm 1 mps 755 mmHg 76%
    04:00 -3°C° 0 mm 1 mps 755 mmHg 78%
    05:00 -3°C° 0 mm 1 mps 755 mmHg 79%
    06:00 -3°C° 0 mm 1 mps 755 mmHg 81%
    07:00 -3°C° 0 mm 1 mps 755 mmHg 82%
    08:00 -2°C° 0 mm 1 mps 755 mmHg 80%
    09:00 -2°C° 0 mm 1 mps 755 mmHg 78%
    10:00 -2°C° 0 mm 1 mps 756 mmHg 76%
    11:00 -1°C° 0 mm 1 mps 755 mmHg 72%
    12:00 -2°C° 0 mm 2 mps 755 mmHg 69%
    13:00 -2°C° 0 mm 2 mps 755 mmHg 65%
    14:00 0°C° 0 mm 1 mps 755 mmHg 67%
    15:00 0°C° 0 mm 1 mps 755 mmHg 69%
    16:00 -1°C° 0 mm 1 mps 754 mmHg 71%
    17:00 -1°C° 0 mm 1 mps 754 mmHg 72%
    18:00 -1°C° 0 mm 1 mps 754 mmHg 73%
    19:00 -1°C° 0 mm 1 mps 754 mmHg 73%
    20:00 -4°C° 0 mm 2 mps 754 mmHg 74%
    21:00 -4°C° 0 mm 2 mps 754 mmHg 74%
    22:00 -4°C° 0 mm 2 mps 754 mmHg 75%
    23:00 -4°C° 0 mm 2 mps 753 mmHg 76%

    Day after tomorrow, 22 January, Tuesday

    Time Temperature Precipitation Wind Pressure Humidity
    00:00 -4°C° 0 mm 2 mps 753 mmHg 77%
    01:00 -4°C° 0 mm 2 mps 753 mmHg 78%
    02:00 -4°C° 0 mm 2 mps 752 mmHg 78%
    03:00 -4°C° 0 mm 2 mps 752 mmHg 78%
    04:00 -4°C° 0 mm 2 mps 751 mmHg 78%
    05:00 -5°C° 0 mm 2 mps 751 mmHg 78%
    06:00 -5°C° 0 mm 2 mps 750 mmHg 78%
    07:00 -6°C° 0 mm 3 mps 750 mmHg 78%
    08:00 -5°C° 0 mm 3 mps 750 mmHg 75%
    09:00 -5°C° 0 mm 3 mps 750 mmHg 73%
    10:00 -5°C° 0 mm 3 mps 750 mmHg 70%
    11:00 -3°C° 0 mm 2 mps 749 mmHg 66%
    12:00 -3°C° 0 mm 2 mps 748 mmHg 63%
    13:00 -2°C° 0 mm 2 mps 748 mmHg 59%
    14:00 -2°C° 0 mm 2 mps 747 mmHg 61%
    15:00 -3°C° 0 mm 2 mps 747 mmHg 63%
    16:00 -3°C° 0 mm 2 mps 746 mmHg 65%
    17:00 -3°C° 0 mm 2 mps 746 mmHg 66%
    18:00 -3°C° 0 mm 2 mps 746 mmHg 68%
    19:00 -3°C° 0 mm 2 mps 746 mmHg 70%
    20:00 -4°C° 0 mm 2 mps 745 mmHg 72%
    21:00 -5°C° 0 mm 3 mps 745 mmHg 74%
    22:00 -5°C° 0 mm 3 mps 745 mmHg 76%
    23:00 -5°C° 0 mm 3 mps 745 mmHg 75%

    23 January, Wednesday

    Time Temperature Precipitation Wind Pressure Humidity
    00:00 -5°C° 0 mm 3 mps 744 mmHg 75%
    01:00 -6°C° 0 mm 3 mps 744 mmHg 74%
    02:00 -6°C° 0 mm 3 mps 744 mmHg 76%
    03:00 -6°C° 0 mm 3 mps 743 mmHg 77%
    04:00 -6°C° 0 mm 3 mps 743 mmHg 78%
    05:00 -6°C° 0 mm 3 mps 743 mmHg 81%
    06:00 -6°C° 0 mm 3 mps 743 mmHg 84%
    07:00 -8°C° 0 mm 4 mps 743 mmHg 87%
    08:00 -7°C° 0 mm 4 mps 743 mmHg 85%
    09:00 -7°C° 0 mm 4 mps 743 mmHg 82%
    10:00 -7°C° 0 mm 5 mps 743 mmHg 80%
    11:00 -7°C° 0 mm 5 mps 743 mmHg 77%
    12:00 -6°C° 0 mm 5 mps 743 mmHg 73%
    13:00 -6°C° 0 mm 5 mps 743 mmHg 69%
    14:00 -5°C° 0 mm 4 mps 743 mmHg 70%
    15:00 -5°C° 0 mm 4 mps 743 mmHg 71%
    16:00 -5°C° 0 mm 4 mps 743 mmHg 71%
    17:00 -5°C° 0 mm 4 mps 744 mmHg 73%
    18:00 -5°C° 0 mm 4 mps 744 mmHg 75%
    19:00 -5°C° 0 mm 4 mps 744 mmHg 76%
    20:00 -5°C° 0 mm 4 mps 745 mmHg 76%
    21:00 -5°C° 0 mm 4 mps 745 mmHg 76%
    22:00 -5°C° 0 mm 4 mps 745 mmHg 75%
    23:00 -5°C° 0 mm 4 mps 745 mmHg 76%

    24 January, Thursday

    Time Temperature Precipitation Wind Pressure Humidity
    00:00 -5°C° 0 mm 4 mps 745 mmHg 77%
    01:00 -5°C° 0 mm 4 mps 746 mmHg 78%
    02:00 -5°C° 0 mm 4 mps 746 mmHg 79%
    03:00 -5°C° 0 mm 4 mps 746 mmHg 80%
    04:00 -5°C° 0 mm 4 mps 746 mmHg 80%
    05:00 -5°C° 0 mm 4 mps 746 mmHg 81%
    06:00 -5°C° 0 mm 4 mps 746 mmHg 81%
    07:00 -5°C° 0 mm 4 mps 747 mmHg 82%
    08:00 -5°C° 0.1 mm 3 mps 747 mmHg 81%
    09:00 -5°C° 0.1 mm 3 mps 747 mmHg 81%
    10:00 -5°C° 0.1 mm 3 mps 747 mmHg 80%
    11:00 -4°C° 0.1 mm 3 mps 747 mmHg 80%
    12:00 -3°C° 0.1 mm 2 mps 747 mmHg 79%
    13:00 -3°C° 0.1 mm 2 mps 747 mmHg 78%
    14:00 -3°C° 0.1 mm 2 mps 747 mmHg 80%
    15:00 -3°C° 0.1 mm 2 mps 747 mmHg 82%
    16:00 -3°C° 0.1 mm 2 mps 747 mmHg 84%
    17:00 -3°C° 0.2 mm 2 mps 748 mmHg 86%
    18:00 -3°C° 0.2 mm 2 mps 748 mmHg 87%
    19:00 -3°C° 0.2 mm 2 mps 748 mmHg 88%
    20:00 -1°C° 0.2 mm 1 mps 748 mmHg 89%
    21:00 -1°C° 0.2 mm 1 mps 748 mmHg 90%
    22:00 -1°C° 0.2 mm 1 mps 749 mmHg 91%
    23:00 -1°C° 0.1 mm 1 mps 749 mmHg 91%

    25 January, Friday

    Time Temperature Precipitation Wind Pressure Humidity
    00:00 -1°C° 0.1 mm 1 mps 749 mmHg 91%
    01:00 -1°C° 0.1 mm 1 mps 749 mmHg 92%
    02:00 -1°C° 0.1 mm 1 mps 748 mmHg 92%
    03:00 -3°C° 0.1 mm 2 mps 748 mmHg 92%
    04:00 -3°C° 0.1 mm 2 mps 748 mmHg 92%
    05:00 -3°C° 0.1 mm 2 mps 748 mmHg 92%
    06:00 -3°C° 0.1 mm 2 mps 748 mmHg 92%
    07:00 -3°C° 0.1 mm 2 mps 749 mmHg 91%
    08:00 -3°C° 0.1 mm 2 mps 749 mmHg 91%
    09:00 -4°C° 0.1 mm 3 mps 749 mmHg 90%
    10:00 -4°C° 0.1 mm 3 mps 749 mmHg 89%
    11:00 -4°C° 0 mm 3 mps 749 mmHg 87%
    12:00 -4°C° 0 mm 3 mps 749 mmHg 85%
    13:00 -2°C° 0 mm 3 mps 749 mmHg 82%
    14:00 -4°C° 0 mm 3 mps 749 mmHg 82%
    15:00 -4°C° 0 mm 3 mps 749 mmHg 83%
    16:00 -4°C° 0 mm 3 mps 749 mmHg 83%
    17:00 -3°C° 0 mm 2 mps 750 mmHg 85%
    18:00 -4°C° 0 mm 2 mps 750 mmHg 86%
    19:00 -4°C° 0 mm 2 mps 750 mmHg 88%
    20:00 -4°C° 0 mm 2 mps 750 mmHg 89%
    21:00 -5°C° 0 mm 2 mps 750 mmHg 89%
    22:00 -5°C° 0 mm 2 mps 751 mmHg 90%
    23:00 -5°C° 0 mm 2 mps 750 mmHg 90%
    Show more